Location: Gazon
(48.1318°N, 1.2708°W)
Time: 22:06:44
(UTC+00:00)

ATLAS 2AS CENTAUR R/B - Pass Details

Date: 18 September 2020
Orbit: 939 x 1273 km, 63.7° (Epoch: 19 October)

Event Time Altitude Azimuth Distance (km) Brightness Sun altitude
Rises 22:52:08 0° 245° (WSW) 4,219 5.8 -38.4°
Enters shadow 22:52:41 - 246° (WSW) 4,039 5.7 -38.4°
Exits shadow 22:59:05 30° 269° (W) 2,114 4.3 -38.8°
Maximum altitude 23:02:44 48° 324° (NW) 1,615 3.8 -39.0°
Drops below altitude 10° 23:10:14 10° 37° (NE) 3,196 5.5 -39.4°
Sets 23:13:06 0° 44° (NE) 4,127 6.1 -39.5°
